Location: Newark
(48.5667°N, 7.8167°E)
Time: 20:15:15
(UTC+00:00)

X-37B - Pass Details

Date: 08 August 2021
Orbit: 381 x 393 km, 45.0° (Epoch: 29 August)

Event Time Altitude Azimuth Distance (km) Brightness Sun altitude
Exits shadow 01:37:26 21° 117° (ESE) 933 2.5 -19.8°
Drops below altitude 10° 01:38:48 10° 101° (E) 1,398 3.6 -19.7°
Sets 01:40:58 0° 91° (E) 2,252 4.9 -19.5°
